Theta_e
334 334 332 334 336 335 335 334 332 331 330 329 329 327 326 324 323 321 319 317 313 306 298 296 297 297 298 299 299 299 299 299 298 299 299 299 300 299 300 299 298 298 297 303 317 320 319 320 320 320 319 318 318 318 318 319 319 318 317 316 316 316 315 315 316 317 316 316 316 317 319 319 319 319 319 320 320 321 322 322 323 323 323 324 325
333 333 332 332 335 336 335 334 332 331 330 329 329 327 326 325 323 322 321 318 317 312 303 296 297 297 298 299 299 299 298 299 299 298 299 299 300 300 300 300 299 299 298 299 312 321 321 320 319 320 319 319 318 317 318 320 319 318 317 316 315 315 314 315 316 316 315 315 315 316 318 317 317 317 317 318 318 319 320 320 321 322 322 323 324
332 333 332 332 334 335 334 333 332 331 330 329 328 327 326 325 324 323 321 319 317 316 309 300 297 298 299 299 299 299 298 298 298 298 299 299 300 300 300 300 300 299 299 299 306 316 320 320 320 320 320 319 318 317 318 320 319 317 316 315 315 314 314 314 315 315 314 314 314 315 316 316 316 316 316 316 316 317 318 318 318 319 320 321 322
333 333 333 332 333 333 333 332 332 331 330 329 328 327 326 325 324 322 321 320 318 317 314 305 298 298 299 300 299 299 298 297 298 298 298 299 299 300 300 300 300 300 300 299 302 308 314 318 319 319 320 319 319 317 317 319 319 318 316 315 315 314 314 313 314 314 313 313 314 314 315 315 315 315 315 315 315 315 316 316 316 316 317 318 319
332 333 333 333 332 332 333 332 332 331 330 329 327 326 325 325 324 323 321 320 318 317 315 311 303 299 299 299 300 299 298 297 297 298 298 298 299 299 300 300 300 300 300 300 300 302 307 312 316 318 318 319 319 318 317 318 319 318 316 315 314 314 313 313 313 313 313 313 313 314 315 314 314 314 313 313 314 314 314 314 314 315 315 315 317
331 331 332 332 331 331 332 331 331 331 329 328 327 326 325 325 324 323 321 320 318 317 316 314 309 306 302 300 300 299 299 297 296 297 297 297 298 298 299 300 300 300 300 300 299 300 302 307 311 314 316 317 318 319 318 318 319 318 316 315 314 314 313 313 312 313 313 313 313 314 314 313 313 313 312 312 312 312 313 313 313 313 314 314 315
331 331 331 331 331 331 331 331 331 330 328 327 326 326 325 324 323 322 321 319 318 317 316 315 313 311 307 302 300 300 299 297 296 296 297 297 297 298 298 299 299 299 300 300 300 299 300 304 308 311 314 315 316 317 317 318 319 318 317 315 314 314 313 313 312 313 313 313 313 313 313 313 312 312 312 312 311 312 312 312 312 313 313 313 313
331 331 331 330 330 330 331 331 330 329 328 327 326 325 325 324 323 322 320 319 317 316 316 315 314 313 309 303 300 300 299 297 296 296 296 297 297 297 298 298 299 299 299 299 299 299 299 302 305 309 313 314 314 315 315 316 318 319 318 315 313 313 313 313 312 313 313 313 313 313 313 312 312 311 311 311 311 311 311 311 311 312 312 312 312
330 330 330 330 330 330 330 331 330 329 328 327 326 325 324 323 322 321 320 318 316 315 315 314 314 313 309 303 300 300 298 297 297 296 296 296 296 296 297 297 298 298 299 299 299 299 299 299 301 306 310 312 312 313 314 315 316 318 317 315 314 314 313 312 312 312 312 312 312 312 312 311 311 311 311 310 310 309 309 309 310 310 310 311 311
327 327 327 327 328 328 328 328 327 327 327 326 325 324 324 323 322 321 319 318 316 316 315 315 314 312 308 304 301 299 298 297 297 296 296 296 296 296 296 296 297 298 298 299 299 299 299 299 298 301 305 308 308 310 313 314 315 316 316 315 314 314 313 312 311 312 312 311 311 311 311 310 310 310 310 309 309 308 308 308 309 309 309 309 310
324 324 324 323 323 324 323 323 323 323 323 323 323 323 323 322 321 320 319 318 317 316 316 314 313 311 308 304 301 299 298 297 297 296 296 295 296 295 296 296 296 297 298 298 298 299 298 299 298 298 300 301 302 307 311 313 314 315 315 315 314 314 313 312 311 311 311 311 310 310 310 309 309 309 309 308 308 307 307 308 308 309 309 309 309
321 321 321 321 320 320 320 319 319 319 319 319 318 319 319 319 319 318 317 317 317 316 315 312 310 307 305 303 301 299 298 297 297 297 296 295 295 296 296 296 296 297 297 297 297 298 298 298 298 297 298 297 299 305 310 312 313 313 314 314 314 314 313 312 311 311 311 310 310 309 309 308 308 308 308 307 307 307 307 308 308 308 308 309 309
317 317 318 318 318 317 317 317 317 317 317 316 316 316 316 316 315 315 315 315 315 314 312 308 304 302 302 300 299 298 298 297 297 297 296 296 295 296 296 296 296 296 296 297 297 297 297 297 297 297 297 297 297 302 308 311 312 312 313 313 313 314 313 312 311 311 310 310 309 308 308 307 307 307 307 307 307 307 307 307 307 308 308 308 308
310 311 313 314 314 315 315 315 315 315 315 315 315 315 314 314 313 311 311 310 310 310 309 306 301 299 298 297 298 298 297 297 297 297 296 296 296 296 296 296 296 295 295 296 296 297 297 297 297 296 296 296 296 298 303 307 310 311 311 312 312 312 313 313 311 311 310 309 308 308 307 307 306 306 306 306 307 306 306 306 306 307 307 307 307
305 306 307 308 309 310 310 311 312 312 312 312 312 313 312 312 311 309 307 306 306 306 306 304 301 299 297 297 299 298 298 297 296 297 297 296 296 296 296 296 295 296 295 295 295 296 296 296 296 296 296 296 296 296 298 300 304 309 311 310 311 310 310 312 312 311 310 309 308 307 307 306 305 305 306 306 306 306 305 305 306 306 306 306 306
302 302 303 304 305 305 306 307 308 308 309 309 310 309 309 309 309 309 307 305 305 304 304 302 300 300 298 297 296 295 298 298 294 296 297 296 296 296 296 296 296 296 296 295 295 295 296 296 296 296 295 295 295 295 296 296 298 305 310 310 309 309 308 310 312 311 310 309 309 307 306 306 305 305 306 305 305 305 305 305 305 306 306 306 306
300 300 300 301 301 302 302 303 304 305 306 307 307 306 305 305 305 305 306 305 304 303 302 301 300 300 298 298 297 298 300 297 294 297 297 295 296 296 296 296 296 296 296 296 296 295 295 295 295 295 295 295 295 295 295 295 295 300 306 309 308 307 307 308 310 311 311 310 309 308 306 305 305 305 305 305 305 305 305 304 305 306 306 306 306
300 300 299 300 299 300 300 300 301 301 302 303 304 304 303 303 302 302 302 303 303 302 302 302 301 300 298 297 298 299 298 296 296 299 297 296 297 296 296 296 296 296 296 296 296 296 295 295 295 295 295 295 295 295 295 295 295 295 299 304 306 306 306 306 307 308 310 311 311 309 308 306 305 305 305 305 304 305 305 304 304 305 305 306 306
299 299 299 299 299 299 299 299 299 299 299 300 300 301 301 301 301 301 300 300 300 300 300 301 301 300 300 299 298 297 296 295 296 297 297 297 296 296 296 296 296 296 296 296 296 296 295 295 295 295 295 295 295 295 294 294 295 294 294 296 298 299 300 302 306 307 307 311 312 310 309 307 306 305 305 304 304 304 304 304 304 304 305 305 305
298 298 298 298 298 298 298 298 298 298 298 298 298 298 299 299 300 300 300 300 299 298 298 299 298 299 299 299 298 298 296 295 295 294 295 295 295 295 296 295 295 295 295 296 296 296 296 296 296 295 295 295 295 295 294 294 294 294 294 293 293 294 294 297 303 306 306 308 311 311 309 308 307 306 305 304 303 304 304 304 304 304 305 305 305
295 295 296 297 297 297 298 298 298 298 298 298 298 297 298 298 298 298 299 299 299 298 298 297 297 297 297 297 297 297 296 296 295 294 293 294 295 295 295 295 295 295 295 296 296 296 296 296 296 296 295 295 295 295 294 294 294 294 294 293 293 293 293 293 297 303 305 305 308 310 309 308 307 306 305 304 304 303 303 303 303 304 304 304 304
290 291 292 293 294 295 295 296 296 297 297 297 297 297 296 296 296 296 297 297 297 297 297 297 297 297 297 296 296 296 295 295 295 294 293 293 294 294 294 294 294 295 295 296 296 296 296 296 296 296 296 296 295 295 294 294 294 294 294 293 293 292 292 292 292 296 300 302 305 309 309 307 307 306 306 305 304 303 303 303 303 303 304 304 304
286 286 287 287 288 289 290 290 291 292 293 293 294 294 295 295 295 295 295 296 296 296 296 297 297 297 297 296 295 295 295 295 295 295 294 294 294 294 294 294 294 294 295 296 296 296 296 296 296 296 296 296 296 295 295 295 294 294 294 293 293 292 292 292 291 291 293 296 300 305 308 307 307 307 306 305 305 304 303 303 303 303 304 304 304
286 286 285 285 286 286 286 286 286 287 287 288 289 290 291 292 293 293 294 294 294 295 295 295 296 296 296 296 296 295 295 294 294 294 294 294 294 294 294 294 294 294 294 295 295 295 296 296 296 296 296 296 297 296 296 295 294 294 294 293 293 292 292 291 291 290 290 292 294 300 306 308 307 306 306 306 305 305 304 303 303 303 304 304 304
286 286 285 285 285 285 285 285 285 285 285 285 286 286 286 287 288 289 291 292 293 293 293 294 294 294 295 295 295 295 295 295 295 294 293 293 293 293 293 293 293 293 294 294 294 295 295 295 295 296 296 296 296 297 296 296 296 295 294 294 293 292 292 291 290 290 290 290 291 296 304 307 307 306 305 305 305 305 304 304 303 303 304 304 304
285 285 286 286 285 285 285 285 285 285 285 285 285 285 285 285 285 286 286 288 289 290 291 292 292 293 293 293 294 294 294 295 295 294 294 293 292 292 292 293 293 293 293 293 293 293 294 295 295 295 296 296 296 296 297 296 297 296 295 294 294 293 292 291 290 290 290 289 290 296 304 306 306 306 305 305 305 305 304 304 303 303 304 304 304
285 285 285 286 286 285 286 285 285 285 285 285 285 285 285 285 285 285 285 285 285 286 287 287 289 290 291 292 292 293 293 293 294 294 294 294 293 292 292 292 292 292 292 293 293 293 293 294 295 295 295 296 296 296 297 296 297 297 296 294 294 293 293 291 291 290 289 289 289 294 302 305 305 305 305 304 304 303 304 304 303 303 304 304 304
285 285 285 285 285 285 285 285 285 285 285 285 285 285 285 285 285 285 285 285 285 285 285 285 285 286 287 288 289 290 291 292 292 292 293 293 293 293 292 291 291 292 292 293 293 293 293 294 294 295 295 295 295 296 296 296 297 297 296 295 294 294 294 292 291 290 289 289 289 291 298 302 304 304 303 303 302 302 302 302 301 302 303 303 303
284 284 284 284 285 285 285 285 285 285 285 285 285 285 285 285 285 285 285 285 285 285 285 285 285 285 285 285 286 286 287 289 290 291 292 292 292 292 292 292 291 291 291 292 292 292 293 293 293 294 294 295 295 295 296 296 296 296 296 296 295 295 294 293 292 291 289 289 289 290 294 298 300 302 302 302 301 301 299 298 298 298 301 303 303
284 284 284 284 284 284 284 284 284 284 284 284 284 284 284 284 284 284 284 284 284 284 284 284 284 284 285 285 285 285 285 285 286 287 289 290 291 291 291 292 291 290 290 291 292 292 292 293 293 293 294 294 294 295 295 295 295 296 296 295 295 295 295 294 293 291 290 289 289 291 293 295 295 296 298 299 299 298 296 294 293 293 297 302 303
284 284 284 284 284 284 284 284 284 283 283 283 283 283 283 283 283 284 284 283 283 284 284 284 283 283 284 284 284 284 285 285 285 285 285 287 288 290 290 291 291 290 289 289 290 291 292 292 292 293 293 293 293 294 294 294 295 295 295 295 295 295 295 293 292 291 290 289 289 290 292 295 295 292 291 293 293 293 291 290 290 289 292 299 302
284 284 284 284 283 283 284 283 283 284 283 283 283 282 282 282 282 282 282 282 282 282 283 283 283 282 282 283 283 283 284 284 284 284 285 285 285 287 288 290 290 290 290 288 288 290 291 291 292 292 292 292 293 293 293 294 294 294 294 295 295 295 294 293 292 292 291 290 289 289 290 292 295 293 290 290 290 289 288 288 288 288 289 295 301
283 283 283 283 282 283 283 283 283 283 283 283 282 282 282 282 281 281 281 280 281 281 281 282 282 282 281 281 282 282 282 283 283 283 284 284 285 285 286 288 289 289 289 288 288 288 289 290 291 291 292 292 292 292 293 293 293 294 294 294 294 294 294 294 293 293 292 291 290 290 289 290 293 294 291 289 289 288 288 287 287 287 288 292 297
282 282 282 282 281 281 281 282 282 282 282 282 281 281 281 281 281 281 280 280 280 280 280 280 281 281 281 281 281 282 282 282 282 282 283 283 284 285 285 286 287 288 288 288 288 288 288 289 290 290 291 291 291 292 292 292 293 293 293 293 293 294 294 294 294 293 293 292 290 290 290 290 292 294 293 291 289 288 287 287 287 286 287 291 295
281 281 281 280 280 280 280 280 280 280 280 280 280 280 279 279 279 280 280 279 279 280 280 280 280 280 280 280 280 281 281 281 281 282 282 282 283 284 284 285 286 286 287 288 288 287 287 288 289 289 290 290 291 291 291 292 292 292 293 293 293 293 293 293 293 293 292 292 291 290 290 290 290 292 294 292 291 289 287 286 287 286 286 290 295
281 280 280 279 279 279 278 278 278 278 278 278 278 278 278 278 278 278 278 279 278 278 279 279 279 279 279 279 280 280 280 281 281 281 281 282 282 283 284 284 285 285 286 287 287 287 287 287 288 288 289 289 290 290 290 291 291 292 292 292 292 292 292 292 292 293 292 291 291 290 290 290 289 291 292 292 293 293 289 287 286 286 286 288 292
280 279 279 278 278 278 277 277 277 277 277 277 277 277 277 277 277 277 277 278 278 278 278 278 279 279 279 279 279 280 280 280 280 281 281 281 282 282 283 284 284 285 285 286 286 287 287 287 287 287 288 288 289 289 289 290 290 291 291 291 292 291 291 291 291 291 291 291 291 290 289 289 289 290 291 291 294 294 293 291 287 285 286 287 289
279 279 278 278 277 277 277 277 277 277 277 277 277 277 277 277 277 277 277 277 277 278 278 278 278 279 279 279 279 279 280 280 280 280 281 281 281 282 282 283 283 284 284 285 285 286 286 286 286 287 287 287 288 288 289 289 289 290 290 290 291 290 290 290 290 290 290 290 291 290 289 289 289 290 292 292 293 294 293 293 290 286 286 287 288
278 278 278 277 277 277 277 277 276 276 276 276 276 276 276 276 276 276 277 277 278 278 278 278 278 278 279 279 279 279 279 280 280 280 280 281 281 281 282 282 283 283 284 284 284 285 285 285 286 286 286 287 287 288 288 288 288 289 289 288 289 289 289 289 289 290 290 290 290 290 289 289 288 290 291 292 293 293 293 293 292 288 287 288 288
278 278 277 277 277 277 276 276 276 275 275 275 275 275 275 275 276 277 277 277 277 277 278 278 278 278 278 278 278 279 279 279 279 280 280 281 281 281 282 282 282 283 283 284 284 284 284 285 285 285 286 286 286 287 287 287 287 287 288 287 287 288 288 289 289 290 290 289 290 289 289 288 288 288 289 290 292 292 292 293 291 289 289 289 289
278 278 277 277 277 277 277 276 275 275 274 274 273 274 275 275 276 276 276 276 276 276 276 277 277 277 277 277 278 278 278 279 279 280 280 281 281 282 282 282 283 283 283 283 283 284 284 284 284 285 285 285 286 286 286 286 286 287 288 287 287 287 287 288 288 289 289 289 288 288 288 287 287 287 288 289 290 291 292 292 291 290 290 290 290
278 278 278 277 276 276 276 276 275 274 273 273 272 273 274 275 275 275 275 275 275 275 275 275 276 276 276 276 276 277 277 278 278 279 279 280 280 281 281 282 282 283 283 283 283 283 284 284 284 284 284 285 285 286 286 286 287 287 287 287 287 287 287 286 287 288 288 288 287 286 287 287 286 286 287 288 289 290 291 291 291 290 290 290 291
279 278 278 277 276 275 275 274 274 273 272 271 271 271 272 273 273 274 274 273 274 274 274 274 274 274 275 275 275 275 275 276 276 277 277 278 279 279 280 280 281 282 283 283 283 284 284 284 284 284 284 284 285 285 286 286 287 287 287 287 286 286 286 286 286 287 287 287 287 286 286 287 286 286 286 287 288 289 289 290 290 290 290 289 290
278 277 277 276 275 275 274 273 272 271 270 270 269 270 271 272 272 273 273 272 272 272 272 273 273 273 273 274 274 274 274 275 275 275 276 276 277 277 278 279 280 280 281 282 283 284 284 284 284 284 284 284 285 285 285 286 287 287 287 287 286 286 286 286 286 287 287 288 287 285 286 287 286 285 285 286 287 288 288 289 289 289 290 290 290
276 276 275 274 274 273 272 272 271 270 269 269 269 269 270 271 271 272 272 272 272 272 272 272 271 272 272 272 272 272 272 273 273 274 274 274 275 275 276 277 277 278 279 280 281 282 283 284 284 284 285 285 285 285 285 285 286 287 286 286 286 286 286 286 286 287 287 287 287 286 286 287 286 285 285 286 287 287 287 288 288 288 289 290 291
275 274 274 273 272 271 270 269 269 269 269 269 268 268 269 270 270 271 271 271 271 271 270 270 270 270 270 270 270 270 270 271 271 272 272 273 274 275 275 276 276 277 277 278 279 280 281 282 283 284 284 285 285 285 285 285 286 286 286 286 286 286 286 286 287 287 287 287 287 286 286 286 286 285 285 287 286 286 286 287 287 288 288 289 290
273 273 272 271 270 269 268 268 268 268 268 268 268 267 268 269 270 270 270 270 269 269 269 269 269 269 269 269 269 269 270 270 270 271 272 273 273 274 274 275 275 275 276 276 277 278 279 280 281 282 283 283 284 284 285 286 286 286 286 287 287 287 287 287 287 287 287 286 286 286 286 287 286 285 285 287 286 285 286 286 286 287 287 287 289
272 271 271 270 269 268 268 267 266 267 268 267 266 266 267 268 269 269 269 269 268 268 268 268 268 268 269 269 269 269 270 270 270 271 272 272 273 273 274 274 274 275 275 275 276 276 277 278 279 280 281 282 283 283 284 285 285 286 286 287 287 287 286 286 286 286 286 286 286 285 286 287 286 286 286 286 285 285 286 285 285 286 286 286 287
270 270 269 268 267 267 267 266 266 266 266 265 265 266 267 268 268 268 268 268 268 268 268 268 268 268 269 269 269 269 269 269 270 270 271 272 272 273 274 274 274 275 275 275 275 275 276 277 277 278 279 281 282 283 284 284 285 286 286 286 286 286 286 286 286 286 286 286 286 285 285 286 286 286 286 286 285 286 286 285 285 286 285 286 287
269 268 267 267 266 266 266 266 265 264 264 264 264 265 266 267 268 268 268 268 268 268 268 268 268 268 268 269 269 269 269 269 270 271 272 273 273 274 274 274 274 274 274 275 275 275 275 276 276 277 278 279 280 282 283 284 285 286 286 286 286 286 286 286 286 286 286 287 286 285 284 285 286 286 285 284 284 285 285 284 285 285 285 285 286
267 266 266 265 265 265 265 265 264 263 264 264 264 264 265 266 268 268 268 268 268 268 268 268 268 268 268 268 269 269 270 271 271 272 273 273 274 274 274 274 274 274 274 274 274 275 275 275 275 276 276 277 278 279 281 282 283 284 285 286 287 287 286 286 286 286 286 287 287 286 284 284 285 285 284 284 284 284 284 284 284 284 284 284 285
Wind_Speed
23 23 22 24 26 25 23 22 21 19 17 18 19 19 18 19 19 20 20 20 18 17 16 15 15 15 14 14 12 11 9 8 8 7 7 7 6 7 6 6 7 7 8 7 6 7 7 7 7 7 7 6 6 6 6 6 6 7 6 5 5 5 4 4 4 4 3 3 3 3 4 4 2 1 2 1 1 2 1 1 3 3 3 5 5
24 24 23 23 25 24 23 22 21 20 19 20 21 20 19 19 19 20 21 21 20 19 18 17 16 16 15 14 13 11 10 9 9 8 8 8 7 7 7 7 8 7 8 9 7 7 8 8 8 8 8 7 7 7 7 8 7 7 6 5 5 6 5 5 5 6 5 5 5 5 4 4 4 4 4 2 1 1 1 1 3 3 2 3 3
24 25 24 24 25 24 23 22 22 22 22 22 21 20 20 20 20 20 20 21 21 20 19 18 17 16 16 15 14 12 12 11 11 10 9 9 9 9 9 9 9 9 9 10 9 9 9 9 10 10 9 9 9 7 7 9 8 8 6 6 6 7 6 6 6 6 7 6 6 6 6 4 3 4 6 5 2 2 3 3 3 3 2 3 3
24 25 24 24 25 25 25 24 24 24 23 23 22 21 21 20 20 20 20 21 21 21 20 20 19 17 17 16 15 14 14 13 13 13 12 11 10 10 11 11 10 10 10 10 11 11 11 12 12 12 10 10 10 8 8 9 10 9 8 8 8 8 7 7 7 7 7 7 7 7 7 6 4 4 5 5 4 4 5 5 5 3 3 3 3
23 24 25 24 25 25 25 25 24 24 23 23 23 22 21 21 20 20 21 21 22 21 21 21 21 19 18 17 17 16 16 16 16 15 14 13 12 12 12 12 12 12 11 11 12 12 13 13 14 14 13 12 12 11 10 11 12 10 8 8 8 8 7 7 8 8 7 7 7 8 8 7 6 5 5 4 5 5 5 5 5 4 4 5 5
21 23 24 24 24 24 25 25 25 25 25 24 23 23 22 21 21 21 21 22 22 22 22 22 22 22 21 19 19 19 18 19 18 17 17 15 14 14 14 14 14 13 13 13 13 14 14 15 15 16 16 16 15 14 13 12 14 13 8 8 9 8 8 8 7 8 8 8 8 8 8 8 7 6 5 5 5 5 5 4 4 5 5 6 6
19 20 21 23 24 25 25 26 26 25 25 24 23 23 22 22 21 21 21 21 22 22 23 23 23 24 23 22 21 21 21 21 21 20 19 17 16 16 16 15 15 15 15 14 15 15 16 16 17 17 18 18 17 17 17 14 13 16 13 10 11 10 9 9 8 8 8 8 8 8 8 8 8 8 6 6 6 5 5 4 5 5 5 6 5
19 19 20 19 20 22 23 25 25 25 25 24 23 23 22 22 21 20 21 21 22 22 23 24 23 24 23 23 22 22 23 23 22 21 20 19 19 19 18 17 16 16 16 16 16 16 17 18 18 18 19 20 20 19 20 17 14 18 18 14 12 12 10 9 8 8 8 9 9 9 9 9 9 8 8 7 7 7 7 6 6 6 5 5 6
19 21 21 20 19 21 23 25 25 25 24 24 23 23 22 22 21 20 20 20 21 22 23 23 23 22 21 22 22 23 24 23 22 22 22 22 22 21 20 19 18 18 17 18 18 18 18 18 19 20 20 21 21 20 21 20 17 17 18 15 13 13 12 11 10 9 9 10 10 10 9 8 9 9 8 8 8 8 8 8 8 8 7 6 7
14 16 17 18 19 21 22 23 24 23 24 24 23 23 22 21 21 19 19 20 21 22 22 22 21 21 21 22 23 23 24 24 23 23 23 24 23 22 22 22 20 19 19 19 20 20 19 19 19 20 21 21 22 22 22 22 20 16 15 14 13 13 12 12 11 10 11 11 10 10 9 9 10 10 9 10 9 9 9 8 8 7 8 7 7
7 8 9 11 13 15 17 17 18 19 21 22 22 23 22 22 21 19 20 20 21 22 21 20 20 21 21 22 23 24 24 24 25 26 26 25 24 24 24 24 22 21 22 21 21 21 20 20 20 21 21 22 22 22 23 23 22 19 16 13 14 14 13 13 12 12 13 14 12 12 12 11 11 11 11 11 10 9 9 8 8 8 8 8 8
8 6 5 5 6 7 9 10 11 13 15 16 17 18 19 20 20 20 20 20 21 21 20 19 19 20 21 23 23 24 24 25 26 27 28 27 26 25 25 25 24 24 25 23 23 23 22 21 21 21 22 22 23 23 23 23 22 22 20 17 15 15 15 14 13 13 15 15 13 13 14 13 13 13 12 12 11 10 10 9 9 9 9 9 9
14 11 9 8 7 7 6 6 7 8 10 12 13 14 15 16 18 18 19 19 20 20 19 17 14 15 18 20 21 23 24 25 27 28 28 28 27 27 26 26 27 27 26 25 25 25 24 23 22 22 22 23 24 24 24 24 23 23 22 21 19 17 16 16 15 14 14 13 12 14 15 14 14 14 13 13 12 11 11 10 11 11 11 10 10
16 14 13 11 10 9 8 8 7 7 7 8 10 12 13 14 15 16 15 16 17 17 18 15 11 11 11 10 13 17 20 22 27 29 30 30 29 29 29 29 29 29 28 27 28 27 26 25 24 24 24 24 25 25 26 26 25 24 24 24 23 20 18 18 17 16 16 14 14 15 15 14 14 14 14 13 13 12 12 12 12 12 12 12 11
17 16 15 14 13 12 11 9 8 8 7 7 7 9 11 13 13 14 13 13 14 15 16 14 12 9 5 4 5 6 9 13 19 25 27 29 31 32 32 32 32 31 29 29 30 30 28 27 26 26 25 26 26 26 27 28 28 27 26 25 25 23 21 19 19 18 17 17 16 16 16 15 15 15 14 14 14 13 13 13 13 13 13 13 12
17 17 16 16 15 14 13 11 10 10 9 9 9 9 9 10 11 12 12 13 13 13 13 14 13 10 4 2 1 2 4 5 9 16 19 21 25 30 33 33 33 32 30 31 32 31 31 29 28 28 28 27 27 28 28 29 29 29 29 27 26 25 24 22 21 20 20 19 17 17 17 16 16 15 15 15 15 14 14 13 14 14 14 13 13
18 18 17 17 16 15 14 13 12 11 10 10 10 11 11 11 11 11 11 12 13 13 13 13 14 15 10 4 2 2 3 3 7 11 11 12 16 21 26 31 33 33 32 32 33 32 32 32 32 31 30 29 29 29 29 30 30 31 32 31 29 27 26 26 25 23 22 21 20 19 19 18 17 16 16 16 16 15 15 14 14 14 14 14 14
18 18 17 17 17 16 16 15 14 13 12 11 10 10 11 11 11 11 11 11 12 14 15 16 16 16 17 15 13 10 6 6 6 6 9 14 15 15 17 22 27 30 32 33 34 35 34 34 34 34 32 31 31 31 31 31 31 32 33 34 33 32 30 29 29 28 25 23 22 22 21 20 19 17 17 16 16 16 15 15 15 15 15 15 15
18 18 17 17 16 16 16 15 15 15 14 12 12 11 10 9 10 9 10 10 10 12 15 17 16 16 18 20 23 22 18 12 6 5 9 12 13 15 18 20 22 26 28 31 33 35 36 37 37 37 35 34 33 32 33 32 32 33 33 34 34 34 33 32 32 32 30 26 24 24 22 20 20 19 18 17 17 16 16 16 15 16 16 16 16
19 18 17 17 17 16 16 15 15 16 15 14 14 12 11 9 9 8 8 9 9 9 13 15 15 16 18 18 20 24 24 21 17 12 7 7 11 16 21 24 25 25 25 28 30 32 35 37 38 39 39 38 36 35 35 34 34 34 34 34 33 33 32 33 34 34 33 31 27 25 24 23 22 21 20 18 17 17 17 16 16 17 17 17 16
22 20 19 18 17 17 16 16 16 16 15 15 14 14 13 13 12 11 10 9 8 8 9 11 12 15 17 17 18 18 19 20 21 17 11 9 10 10 15 21 23 26 27 28 31 32 33 35 37 39 40 40 40 38 38 36 36 36 36 35 33 33 32 33 34 35 36 35 33 29 27 27 25 23 21 20 18 18 17 17 17 17 18 18 17
27 26 25 23 21 20 19 18 18 17 16 15 15 15 15 15 15 14 13 11 11 10 9 9 10 12 13 15 16 16 14 12 13 15 14 12 9 8 13 16 16 23 29 30 32 33 33 34 35 38 39 40 41 40 40 39 38 37 36 36 34 34 33 33 34 36 37 37 37 33 30 30 28 25 24 21 20 19 18 17 18 18 19 19 18
28 27 27 26 25 24 23 22 21 20 20 19 18 17 16 16 15 14 14 13 13 13 12 11 11 11 11 12 14 15 14 12 13 15 13 10 9 8 13 17 17 22 27 29 32 32 33 34 34 36 37 38 40 41 41 41 40 40 38 37 36 35 34 34 34 35 37 37 38 36 32 32 31 27 26 24 21 20 19 18 18 19 19 19 19
26 26 26 25 25 24 24 24 24 24 23 22 21 20 19 18 17 16 15 15 14 14 14 14 14 14 13 12 13 13 14 15 16 18 17 16 14 9 13 19 18 20 25 28 31 32 32 34 34 35 35 36 38 40 41 42 42 41 40 38 37 36 35 34 34 34 35 36 37 36 34 35 34 30 28 26 23 21 20 19 19 19 20 20 20
25 25 24 23 23 23 23 23 23 23 22 22 22 21 21 21 20 19 18 17 16 16 16 16 15 15 16 15 15 14 15 15 15 17 18 19 18 12 14 19 16 18 23 25 27 30 32 33 33 34 35 36 37 38 39 41 41 41 41 41 39 37 36 35 35 35 34 35 35 36 36 37 37 35 33 29 25 23 23 21 20 20 21 21 21
23 23 22 21 21 21 21 21 21 21 21 21 21 21 21 21 20 20 19 18 18 18 17 17 17 16 16 17 17 17 17 17 16 16 16 17 17 13 13 16 17 19 21 22 23 23 25 28 30 32 34 35 35 36 38 38 40 41 41 42 41 40 38 36 36 36 36 35 35 36 37 38 39 39 38 34 29 25 25 24 22 22 22 22 23
21 20 20 20 20 20 20 20 20 20 20 21 21 21 21 21 20 20 19 18 18 18 18 18 18 18 18 18 19 19 19 19 18 18 17 16 17 16 13 10 12 14 13 17 21 21 24 27 29 30 32 33 35 35 37 38 38 40 40 42 42 41 40 38 37 37 37 37 37 37 38 39 39 39 40 38 33 28 27 26 24 24 24 24 24
18 18 19 19 20 20 20 20 20 20 21 21 21 21 21 21 21 21 20 20 20 19 19 19 18 18 18 18 19 20 20 20 20 19 19 18 17 18 16 11 9 8 8 11 14 16 21 23 25 27 28 29 32 33 35 37 38 38 40 42 41 41 41 40 39 38 38 39 39 39 40 40 40 40 40 40 38 34 31 29 27 26 26 26 25
19 19 19 19 20 20 20 20 20 20 21 21 22 22 22 22 22 22 22 22 22 21 21 21 20 19 19 19 19 19 20 20 21 21 20 20 19 18 18 17 13 8 6 9 10 12 16 18 21 23 24 25 28 30 32 35 36 36 39 42 41 41 41 41 41 41 40 40 40 40 41 41 43 43 42 41 40 39 36 34 32 30 28 28 27
19 20 20 21 21 22 22 22 22 22 22 22 22 22 22 22 23 23 24 25 25 24 24 24 23 23 22 22 21 21 21 20 21 21 21 21 22 21 20 20 19 15 9 8 12 16 18 20 22 23 25 26 27 29 32 33 34 35 38 41 41 41 41 42 42 42 41 41 40 40 40 39 42 44 44 42 42 41 38 37 37 35 33 30 28
19 19 20 21 22 23 23 24 25 25 25 25 26 26 26 25 25 24 24 26 27 27 27 27 27 27 27 27 26 25 24 24 23 23 22 22 22 22 21 21 21 22 19 12 11 17 20 20 24 25 25 27 28 30 33 33 34 35 37 40 40 41 41 42 42 42 42 43 42 41 40 38 38 42 44 42 41 41 39 38 39 38 35 33 30
19 20 21 21 22 23 23 24 24 25 25 26 27 28 29 29 29 29 28 28 28 29 29 30 30 30 30 30 30 29 28 28 27 26 25 24 24 23 23 23 22 23 24 18 11 17 25 28 31 32 31 31 32 33 35 36 35 36 38 39 40 40 41 42 42 42 43 44 44 43 43 41 38 39 42 41 39 40 39 39 39 39 37 36 35
20 21 22 23 24 24 24 25 26 26 27 27 28 29 29 30 30 31 31 31 31 31 31 31 31 31 31 32 32 32 31 30 31 30 28 27 27 26 24 24 25 24 24 23 16 17 26 29 31 35 34 32 33 34 34 35 36 36 38 40 40 40 42 42 43 43 43 44 44 44 45 44 41 38 40 41 39 39 40 39 40 39 38 38 38
22 23 24 25 26 26 27 27 28 28 29 30 30 31 31 31 32 32 32 32 33 33 33 33 32 31 31 32 34 34 32 32 33 32 31 30 29 29 28 26 27 27 25 25 22 18 21 25 29 33 33 30 33 35 33 34 36 36 38 41 40 41 42 43 43 44 44 43 44 45 45 45 43 38 37 40 41 40 40 40 40 40 39 39 38
24 24 25 26 27 28 28 29 29 30 31 31 31 31 31 31 32 33 33 33 33 33 34 35 35 33 32 33 34 33 31 32 35 34 33 32 30 31 32 30 29 30 28 27 26 23 22 24 26 29 31 30 33 35 34 34 35 35 38 40 41 41 42 43 44 45 44 43 42 44 45 45 45 40 37 38 39 40 41 40 40 40 39 39 38
25 25 26 27 28 28 29 29 30 30 30 30 29 29 28 29 29 31 32 32 32 32 33 34 35 34 34 35 35 33 30 30 34 35 33 33 32 31 32 33 31 31 31 28 29 29 26 25 25 28 30 31 33 34 33 33 34 34 37 39 40 42 42 42 43 44 45 43 42 43 44 45 47 45 42 39 36 35 39 40 40 40 39 40 39
26 27 28 28 28 29 29 29 30 29 29 28 28 28 27 26 27 28 29 30 31 31 32 33 34 33 33 35 36 34 31 30 32 34 32 32 33 32 33 34 32 32 32 30 31 32 30 28 28 28 29 30 32 33 32 32 34 35 36 38 39 40 41 41 42 43 43 43 43 42 43 45 47 45 43 41 35 32 33 36 39 40 39 40 42
28 29 29 29 29 29 30 29 29 29 28 27 27 27 26 26 25 27 28 29 30 31 32 33 33 33 33 34 36 35 33 32 33 33 32 30 31 32 33 35 34 32 32 32 31 31 31 31 31 29 28 29 30 32 32 31 33 34 35 36 38 39 38 39 40 42 42 43 44 43 42 43 45 44 41 39 37 34 33 32 36 40 40 40 41
29 29 30 30 29 29 30 30 29 28 28 27 26 26 25 25 25 27 28 29 30 31 32 33 33 34 34 35 36 36 34 34 35 35 33 32 31 31 32 33 33 32 32 33 32 30 30 31 31 29 28 28 28 31 32 30 30 34 34 31 30 33 36 37 40 41 41 42 43 44 43 42 43 44 43 41 38 36 35 34 35 38 39 40 41
30 30 30 30 31 31 30 30 29 28 28 27 26 25 25 25 26 28 29 30 31 33 34 35 36 36 37 37 37 37 37 36 36 36 35 34 32 33 32 31 31 31 31 32 31 30 29 29 30 30 28 27 27 28 29 26 25 30 32 29 29 32 33 35 39 40 40 41 42 43 43 42 42 43 43 43 42 40 38 38 39 40 39 39 41
30 31 31 31 32 33 33 32 31 30 29 28 26 24 25 27 28 29 31 32 33 35 37 38 38 38 38 38 38 37 37 36 37 36 36 35 33 34 35 33 31 30 30 31 30 30 29 27 28 29 26 24 25 25 25 25 27 30 29 27 30 33 30 31 36 38 38 39 39 39 41 40 40 42 42 43 45 45 43 42 42 43 42 41 40
32 32 32 32 32 32 34 34 34 32 30 29 27 25 24 26 29 31 33 35 35 35 37 38 39 39 38 38 39 38 36 35 36 35 35 36 35 35 36 35 33 31 31 30 30 29 28 26 27 28 23 22 26 26 25 27 31 31 28 25 28 30 25 23 29 35 37 37 35 36 39 38 37 40 42 45 47 46 45 46 47 45 44 43 39
33 33 33 33 33 33 34 35 34 33 32 30 29 28 26 25 27 30 33 36 36 36 37 37 39 39 38 38 39 39 38 38 38 37 36 36 36 36 36 36 36 35 34 33 31 30 28 27 28 29 25 25 30 30 28 28 29 29 29 29 28 27 21 16 17 23 29 34 34 34 37 38 36 39 43 47 49 48 48 51 50 47 47 46 41
33 33 33 33 33 33 34 35 34 33 33 32 30 29 28 26 26 27 30 33 34 34 34 33 33 33 32 33 33 33 32 32 33 34 35 35 36 37 37 38 37 37 36 35 35 33 31 29 29 31 30 30 33 33 29 27 27 27 29 30 29 28 25 20 19 21 22 26 30 32 36 39 37 38 43 47 48 49 51 53 52 49 49 47 42
32 32 32 32 33 33 33 34 35 35 34 34 32 29 28 27 27 27 28 29 30 30 30 28 28 28 28 29 31 30 29 29 30 31 33 34 36 36 37 38 38 39 38 38 38 38 37 35 32 33 35 34 34 36 33 28 26 26 26 29 30 29 27 25 28 30 24 21 27 31 33 36 37 38 43 47 47 47 49 51 52 52 51 46 41
31 32 32 32 32 31 31 32 34 35 35 35 33 30 29 28 28 28 28 28 28 28 28 27 27 28 28 28 29 30 30 29 29 30 30 31 32 33 33 34 35 36 37 38 40 40 41 40 38 38 40 39 38 40 40 34 30 29 28 28 29 30 31 33 37 37 28 25 30 28 23 29 33 35 43 48 44 44 47 49 50 52 52 49 44
30 31 32 32 32 32 31 32 34 36 35 34 33 31 29 28 28 29 28 27 27 27 27 26 26 26 26 26 27 29 28 27 26 27 27 28 30 32 34 34 35 37 38 39 39 39 39 38 38 40 42 44 43 44 44 40 37 36 35 33 32 32 33 34 36 35 29 28 32 26 19 27 29 30 40 45 37 38 44 47 47 50 51 52 49
29 30 30 31 32 32 32 32 33 36 36 34 32 30 29 28 29 28 27 27 27 27 27 26 26 26 26 25 26 27 28 27 27 27 28 29 31 33 34 35 36 37 38 38 37 37 39 40 41 42 43 45 46 46 46 43 40 39 38 37 35 32 29 25 26 29 28 29 33 31 24 26 24 27 36 37 31 36 42 42 44 47 49 51 50
29 30 30 31 31 31 32 32 33 36 38 35 31 30 29 28 29 29 28 27 27 27 27 26 26 26 25 25 26 28 30 30 30 30 30 30 32 33 33 34 35 36 37 36 33 34 37 39 43 46 47 48 49 48 48 46 43 41 37 33 32 31 26 17 15 22 26 28 33 35 29 26 24 26 30 27 27 35 38 37 41 45 46 49 51
29 29 30 31 31 30 31 32 32 34 37 35 31 30 29 28 28 29 28 28 28 29 28 27 26 26 26 27 28 31 33 33 32 32 31 31 32 33 32 34 36 37 36 34 32 33 35 36 38 41 43 46 47 47 48 47 45 43 39 35 34 32 26 18 15 21 25 27 32 33 29 27 27 25 22 17 19 30 35 34 36 39 41 44 45
28 29 29 30 31 31 31 32 32 33 36 36 33 31 29 27 27 28 30 29 30 30 29 28 28 28 29 31 31 32 34 35 33 33 31 31 32 32 32 33 33 33 33 33 33 35 36 36 37 38 39 42 44 44 45 45 45 45 44 42 39 35 29 26 24 20 15 19 30 33 28 26 26 24 20 13 9 17 28 31 32 34 37 40 40
Wind_Direction
241 242 244 244 239 233 236 239 240 245 251 258 259 260 262 262 264 265 265 264 259 250 240 236 237 238 240 239 239 239 240 242 242 245 253 260 265 267 268 264 258 249 241 236 235 237 239 245 241 239 245 248 248 244 234 227 226 227 241 259 262 270 277 267 251 240 251 257 243 237 223 216 221 221 223 225 236 231 211 203 202 191 199 208 203
244 243 245 247 243 236 236 239 241 246 254 259 258 260 265 265 266 267 267 266 265 258 248 242 240 242 244 242 242 243 244 245 246 247 252 261 267 270 271 271 264 256 247 236 231 237 239 245 246 240 243 251 251 245 236 233 229 225 237 251 258 266 267 261 255 248 258 265 249 236 232 226 223 229 226 216 261 233 208 242 208 183 176 190 193
247 246 246 246 245 243 242 241 244 250 254 256 257 260 264 267 268 270 270 268 268 264 256 250 245 246 249 248 246 248 249 248 250 251 253 258 264 269 271 272 267 260 252 240 232 231 230 235 241 241 244 247 245 243 242 240 227 220 241 264 266 266 263 259 259 256 259 261 248 236 235 233 223 227 228 228 239 222 217 232 211 195 194 174 164
249 249 248 247 246 246 245 245 248 252 254 255 256 258 260 264 265 267 268 266 265 264 260 257 253 252 254 255 254 254 256 255 255 256 256 257 260 266 268 269 268 263 257 250 242 236 229 226 225 230 237 238 239 245 248 237 224 226 251 265 262 262 263 261 260 262 262 256 248 240 237 237 237 233 230 235 243 233 224 226 217 221 247 214 200
250 250 251 250 250 249 248 249 252 254 254 254 254 255 256 258 261 263 265 263 261 261 261 260 260 260 260 260 260 261 263 262 260 260 260 259 259 263 266 268 267 266 262 257 250 244 239 233 228 226 225 225 230 242 247 235 227 231 250 254 247 253 259 262 260 259 261 255 248 242 239 240 239 238 240 243 247 246 241 236 233 240 255 246 238
253 251 251 252 253 253 254 255 257 255 253 253 252 253 253 255 258 261 262 262 261 260 260 261 263 267 266 263 262 265 266 265 263 262 261 261 260 261 263 265 266 267 266 261 256 249 245 241 237 232 228 223 222 226 229 232 233 227 232 248 244 248 255 259 260 258 258 254 248 243 241 243 241 243 249 249 248 246 243 239 236 238 241 242 243
260 256 253 253 253 255 257 259 259 255 253 253 251 251 251 253 255 258 260 261 261 260 260 262 265 268 268 265 264 266 266 265 263 262 262 261 261 261 261 262 265 266 265 263 259 254 249 244 240 237 234 232 227 224 221 225 234 226 229 249 246 243 248 251 252 253 255 250 246 245 244 245 245 248 249 248 248 239 238 236 229 228 225 229 234
255 253 251 252 257 261 264 264 262 259 257 254 251 250 249 250 253 257 260 261 261 261 262 264 267 269 268 264 264 268 267 265 264 263 263 263 262 261 261 261 262 264 264 264 262 257 252 248 245 241 238 237 235 234 229 225 232 233 237 247 236 230 236 240 240 242 247 247 246 246 246 246 246 250 249 248 247 241 245 247 240 237 228 226 229
251 249 247 248 254 259 261 260 259 259 257 253 251 250 249 249 252 256 260 261 261 261 264 266 268 269 268 266 266 268 268 266 265 266 265 264 263 263 263 262 261 262 262 263 262 259 256 252 249 245 242 243 241 241 238 232 233 235 238 240 225 222 228 227 230 234 240 244 243 241 243 247 248 250 249 249 251 249 252 251 247 246 239 235 232
262 258 253 252 253 254 256 256 257 257 256 253 250 250 249 250 252 257 260 261 261 263 265 267 269 270 269 268 267 266 266 266 266 266 265 265 265 266 266 264 262 262 261 261 261 259 258 254 252 250 246 247 246 244 242 240 239 235 234 233 222 222 224 223 227 229 232 233 231 233 237 244 247 248 248 250 254 253 253 251 247 243 238 237 233
298 287 277 271 266 263 262 262 261 258 255 252 248 246 247 247 250 255 257 256 259 262 265 266 266 266 266 266 265 264 264 264 265 264 264 264 266 267 267 266 264 262 260 258 259 258 257 254 252 252 251 249 248 245 244 244 243 237 232 229 224 225 226 228 229 226 229 229 229 236 240 243 245 246 248 249 253 252 250 247 243 240 236 236 235
36 14 354 331 314 299 287 282 277 267 257 252 249 247 245 247 251 254 254 252 254 258 260 260 261 263 265 265 264 264 263 261 261 261 262 262 263 265 266 267 265 262 261 259 258 258 256 254 252 252 252 250 248 245 243 244 243 238 233 230 229 231 233 232 227 226 234 236 238 244 242 241 243 244 246 248 249 248 246 244 240 240 239 237 237
46 43 43 37 27 17 1 344 326 302 278 266 264 262 258 258 260 260 257 254 253 254 254 254 257 263 267 269 268 265 262 260 260 261 261 261 261 263 264 265 264 263 264 263 260 258 255 254 253 252 251 250 248 246 243 242 242 239 236 234 232 233 236 234 228 228 234 237 243 246 241 239 241 243 245 245 246 245 245 245 242 240 238 237 237
42 40 41 39 36 31 27 21 11 354 325 298 285 280 279 279 276 274 268 260 256 255 253 250 247 255 268 285 286 277 268 262 263 263 262 261 261 262 262 262 263 264 265 265 263 261 259 256 254 253 251 250 248 246 245 243 241 240 238 236 234 233 235 236 234 230 231 238 244 245 242 241 242 244 244 243 243 246 246 245 244 241 237 238 237
41 38 37 36 34 31 30 27 21 18 8 348 324 307 301 299 294 288 281 274 267 262 258 251 245 254 275 297 304 309 289 270 267 268 266 265 262 261 261 261 262 263 263 263 264 263 262 260 257 255 253 251 250 248 246 244 242 240 238 237 235 234 236 238 237 234 237 241 243 243 242 242 244 244 244 243 243 246 247 246 245 242 240 240 238
46 42 40 37 35 33 31 27 25 24 20 17 11 359 343 328 317 302 288 281 277 276 273 261 249 250 263 296 320 341 297 290 294 289 282 272 264 261 261 261 262 262 260 261 263 264 265 264 262 260 257 254 252 250 248 246 243 240 238 236 236 236 236 237 237 239 244 240 238 244 243 241 244 245 243 244 246 246 246 247 246 243 242 240 238
49 47 45 42 40 38 35 32 30 28 24 25 24 20 13 0 346 329 308 289 281 282 284 276 262 251 244 249 316 298 263 311 327 308 297 289 280 273 267 263 262 260 260 261 262 264 265 266 265 263 261 257 254 252 250 248 246 242 240 238 238 239 238 236 235 238 244 239 235 241 243 241 242 243 244 245 247 248 246 248 247 244 243 241 239
47 45 44 44 43 42 40 39 38 37 34 32 30 28 21 12 1 348 336 317 295 284 282 283 280 266 253 249 256 264 276 312 325 307 298 294 291 288 280 273 268 264 263 264 265 265 265 266 266 265 263 260 257 255 252 251 249 246 244 242 242 243 242 240 236 235 239 241 238 237 236 240 243 240 242 244 246 248 248 249 248 245 244 242 240
43 41 42 42 42 42 40 39 39 38 36 34 33 32 27 19 11 1 354 344 321 297 290 291 289 281 273 263 259 260 267 278 284 289 300 292 283 286 288 287 283 276 272 272 271 269 268 266 266 266 265 263 261 259 256 253 251 250 248 247 246 246 245 241 237 234 235 238 240 238 231 234 242 241 239 242 244 247 249 248 247 246 244 242 241
40 38 38 38 38 39 37 35 35 33 31 31 30 26 21 15 9 5 357 355 347 321 306 303 294 287 287 282 275 270 267 267 266 267 283 292 288 286 284 285 284 280 278 279 279 277 275 273 270 268 267 266 264 263 261 257 254 252 250 249 248 247 246 242 238 236 235 236 236 238 236 233 239 241 239 239 241 244 248 247 245 245 244 243 242
48 45 42 39 37 35 33 31 30 28 25 24 22 16 12 6 360 358 353 351 354 345 329 319 306 298 295 291 289 287 280 275 270 264 260 271 283 286 287 288 285 280 279 280 281 281 281 281 278 274 271 270 267 264 263 261 257 255 252 251 249 248 247 244 241 237 236 236 233 235 241 238 237 239 238 238 240 242 245 246 244 243 243 243 243
53 51 49 46 43 39 35 32 29 25 21 17 14 10 8 4 359 354 348 342 339 342 341 334 323 314 308 301 296 294 291 287 277 269 262 259 266 278 284 286 283 282 283 282 283 283 281 280 279 279 277 276 273 268 264 262 259 257 254 253 251 249 248 247 245 241 238 237 235 236 241 238 234 236 238 238 239 241 243 243 243 241 240 242 241
52 50 49 48 47 45 42 40 37 33 29 24 20 16 12 8 4 358 352 346 340 336 331 327 325 320 318 314 305 297 290 286 283 282 277 269 275 281 282 284 280 280 285 287 285 283 281 279 278 279 280 280 278 273 268 264 262 260 257 255 253 251 250 248 247 245 242 239 237 239 239 233 229 233 237 238 237 239 242 240 240 239 238 239 239
47 46 44 42 43 43 41 40 37 35 33 31 28 27 24 20 16 10 4 357 349 342 336 329 326 321 319 316 313 307 297 291 289 287 284 282 285 286 290 294 288 281 287 290 286 282 280 278 278 278 279 280 279 277 274 270 266 263 259 257 254 252 251 249 248 248 245 242 238 238 236 231 230 231 232 235 235 237 239 236 236 238 236 236 235
42 40 38 37 37 36 35 34 32 30 28 27 26 26 26 25 23 19 14 8 360 352 346 339 334 329 323 317 312 309 304 300 298 294 291 289 287 285 290 292 288 288 291 288 284 283 280 277 277 278 278 277 278 278 277 275 273 269 263 259 256 253 251 249 249 248 247 244 239 236 234 232 232 232 231 232 234 237 239 236 234 235 234 234 234
38 35 33 32 33 32 30 29 27 25 22 20 19 19 20 20 20 19 15 12 7 0 354 348 342 336 331 324 317 312 308 304 302 299 298 293 286 285 293 293 287 289 292 287 282 280 278 278 278 277 276 276 276 277 277 277 277 275 269 263 259 256 252 250 249 248 247 246 241 236 234 234 234 235 235 236 236 238 240 238 234 233 232 231 233
34 31 27 25 26 26 24 22 20 19 16 14 13 12 12 12 12 12 9 7 4 1 357 353 349 343 338 332 324 318 313 310 307 303 300 296 288 284 286 291 292 290 289 289 283 274 275 280 279 275 274 275 275 275 276 277 278 278 273 266 261 258 254 251 249 248 246 245 243 238 235 234 235 236 238 239 239 238 239 237 235 233 232 230 230
30 26 22 19 18 17 16 14 12 11 9 8 6 4 4 4 3 3 1 358 357 356 352 350 347 343 340 336 330 325 321 317 313 310 306 301 295 289 281 271 278 291 292 289 284 279 280 282 280 278 276 276 276 276 276 276 275 277 275 269 264 262 257 253 249 248 246 245 244 242 238 236 236 237 239 241 242 242 240 237 234 232 230 231 229
23 19 15 13 11 9 7 5 3 2 0 359 357 356 355 355 354 353 351 348 346 346 345 343 341 337 334 332 329 326 325 322 317 314 311 305 300 295 286 273 264 268 289 290 282 281 284 282 280 283 284 282 281 280 278 277 277 277 275 271 268 266 262 256 251 249 247 245 243 243 241 240 239 240 240 242 245 246 244 240 236 230 226 227 230
14 10 7 5 3 0 358 356 355 353 352 350 349 347 345 345 344 342 341 339 336 336 335 334 334 332 328 326 324 321 321 320 317 314 312 309 304 298 293 285 272 260 259 280 282 279 280 281 279 282 287 287 285 284 280 279 279 278 275 273 271 271 268 261 254 250 249 247 244 242 242 242 242 243 244 244 246 247 246 242 238 233 224 222 226
4 2 359 356 354 351 350 348 347 346 345 344 343 341 340 339 337 334 333 332 329 327 327 326 326 326 324 322 320 318 318 315 313 312 309 307 305 300 295 290 280 270 261 260 276 277 275 280 281 281 285 286 286 286 283 281 281 279 275 273 272 273 270 263 256 251 249 248 246 242 241 241 242 245 246 246 246 246 245 242 240 238 228 221 223
356 354 352 349 347 344 343 341 339 338 337 337 337 336 336 335 335 334 332 330 327 324 321 320 320 322 321 318 315 314 315 314 311 309 307 304 302 299 295 289 283 278 269 258 262 275 275 278 281 279 280 281 280 279 280 280 280 279 276 274 274 273 268 264 260 255 251 248 247 244 243 242 241 244 247 247 245 244 243 242 241 240 232 223 223
350 348 345 344 342 339 337 336 335 333 332 332 332 332 331 330 330 330 330 330 328 325 322 318 317 319 318 315 312 310 311 311 308 307 305 304 301 296 293 288 282 279 272 260 257 274 279 279 281 281 281 279 277 274 274 275 275 276 276 275 273 271 268 266 264 261 256 250 247 245 243 243 241 243 247 247 245 243 242 242 241 240 233 225 224
346 344 342 340 339 336 335 333 332 331 330 330 331 331 331 329 327 326 326 327 325 323 322 319 318 318 316 312 309 308 309 308 305 304 303 301 300 295 290 286 281 279 275 264 260 268 278 279 279 281 282 278 275 273 272 272 273 274 275 274 273 271 269 267 265 263 260 254 248 245 243 242 241 241 243 246 245 243 242 241 241 240 234 226 225
341 340 339 337 336 335 334 333 332 331 330 330 331 331 330 329 327 325 324 323 322 320 318 316 315 315 313 310 306 306 307 305 302 301 300 299 297 293 290 287 281 280 277 269 263 264 273 278 278 279 281 279 274 274 274 272 272 272 272 273 272 270 268 265 262 262 260 256 250 246 243 242 241 240 240 242 243 242 242 241 240 240 235 226 224
337 337 336 335 334 333 333 332 331 331 330 330 330 329 327 325 323 321 320 319 317 314 312 310 309 309 308 306 304 304 304 301 298 297 298 297 295 292 290 287 283 281 279 274 267 265 268 275 275 274 277 277 275 276 276 274 272 269 268 269 269 268 266 263 261 260 259 257 252 247 243 242 242 240 239 240 238 237 240 241 240 239 236 229 224
334 333 333 332 332 331 331 330 329 329 329 329 327 325 323 321 319 316 314 312 310 308 306 304 303 303 302 300 299 301 300 296 294 293 293 293 293 291 289 287 284 282 281 277 272 269 267 270 273 274 273 274 275 276 273 271 270 268 266 266 265 265 264 262 260 258 257 256 254 250 245 242 241 240 240 240 236 234 235 237 239 239 235 230 226
331 330 330 330 330 329 328 328 327 327 327 326 324 322 320 320 318 313 310 307 305 302 300 299 298 297 296 295 295 296 295 293 291 291 291 290 289 288 286 286 285 284 282 279 276 273 269 269 272 273 271 270 271 273 272 269 267 266 264 264 262 261 259 258 258 257 256 255 254 252 246 241 239 238 239 239 235 234 233 231 236 239 235 230 228
328 328 328 328 328 328 326 326 326 325 325 324 322 321 320 319 316 312 308 305 302 300 297 296 295 293 291 290 291 291 290 289 289 289 290 289 287 285 282 282 283 283 282 280 278 276 273 272 273 272 270 268 267 269 271 270 267 264 260 260 260 258 255 254 255 255 255 255 254 253 249 244 239 236 237 237 234 234 233 229 232 236 233 229 228
327 327 328 327 326 326 326 325 325 324 323 323 322 321 321 319 315 311 307 304 301 298 296 294 292 291 289 288 287 287 286 286 286 286 287 287 287 285 283 281 280 279 278 278 278 276 274 273 273 272 271 269 265 265 266 263 259 258 256 252 253 255 252 251 253 253 253 253 253 252 250 245 239 235 235 237 236 234 234 232 232 233 231 227 226
325 325 326 326 326 325 324 323 323 323 322 321 320 321 320 317 313 309 305 302 300 298 296 295 293 291 290 288 287 286 286 285 284 284 284 284 284 283 283 282 280 276 273 272 272 273 272 271 272 273 272 268 263 260 256 249 247 254 258 252 250 254 253 251 253 251 249 249 249 250 248 244 238 234 232 234 235 234 233 233 234 233 230 227 224
321 322 323 324 325 324 322 321 320 320 319 318 317 318 317 314 310 308 304 301 299 298 296 295 294 293 292 290 288 287 286 285 284 284 284 284 282 281 281 281 280 277 274 271 267 266 266 267 268 271 271 267 264 258 253 251 250 252 254 248 249 254 252 249 254 253 247 243 242 245 248 245 239 235 233 232 234 233 232 232 233 232 230 227 223
318 319 321 323 324 323 321 320 319 318 317 315 316 316 314 312 309 306 303 300 299 297 295 294 295 295 294 293 291 290 287 286 285 284 283 282 282 281 280 279 278 275 273 271 269 266 264 263 265 267 266 267 267 263 258 257 254 249 247 245 246 249 244 239 253 255 246 240 235 238 246 246 240 237 235 233 233 232 231 232 232 232 231 228 224
318 319 321 321 321 321 320 318 317 317 315 315 318 317 313 311 309 305 301 299 298 297 296 296 295 295 296 297 297 295 292 290 289 287 285 284 283 282 281 279 277 275 272 270 270 269 267 264 264 264 263 265 268 267 263 260 256 249 245 243 241 242 241 239 247 252 248 239 230 231 242 244 238 236 237 236 235 232 232 233 232 231 231 230 226
318 319 320 320 320 320 319 317 316 316 316 317 319 317 312 309 308 304 300 297 296 295 295 296 295 295 297 298 297 297 296 296 296 293 290 288 285 282 279 277 275 274 273 271 269 269 268 267 266 264 263 263 265 267 265 264 261 253 243 239 239 239 239 240 246 249 248 235 221 223 237 241 233 232 238 240 238 234 234 234 233 231 231 228 225
318 319 320 320 320 319 318 318 317 316 316 318 319 315 310 307 306 304 300 296 294 293 293 294 294 294 295 295 294 295 296 298 298 296 294 292 290 287 283 280 277 276 276 274 271 269 268 267 266 265 265 265 265 267 267 266 262 256 248 243 240 238 239 244 249 251 248 237 225 221 235 243 231 226 237 242 239 235 236 236 234 232 231 228 226
318 319 319 319 318 318 318 318 317 315 315 317 316 312 308 306 305 303 299 296 294 293 292 293 292 292 293 293 293 294 296 297 298 298 296 294 293 291 288 285 283 281 279 275 273 271 270 269 267 266 266 266 265 266 267 265 262 259 257 255 252 248 247 249 252 251 247 241 230 218 233 248 231 221 236 243 238 237 239 237 235 234 232 230 228
318 317 317 317 317 317 318 318 317 314 314 315 313 309 305 305 305 303 299 296 294 292 293 293 291 291 292 291 292 294 294 295 296 296 295 294 293 291 290 288 285 282 278 275 274 274 273 272 271 269 268 267 266 265 265 264 262 260 260 259 257 252 247 247 249 247 243 239 230 218 230 248 232 222 238 243 236 238 241 238 236 235 233 231 229
317 317 316 316 316 316 317 317 316 313 312 313 311 306 304 304 304 302 299 296 295 293 292 292 290 290 290 290 292 293 293 293 292 292 292 291 288 287 286 286 285 283 280 280 281 278 275 273 272 271 270 269 268 267 264 262 261 258 256 254 250 247 243 240 245 246 241 237 230 221 226 242 234 227 237 241 235 238 240 237 237 236 233 232 230
315 315 315 314 314 316 316 315 315 311 308 310 310 305 304 304 302 301 299 296 294 293 292 291 290 290 290 290 291 291 290 290 289 290 290 288 286 284 284 284 282 280 281 283 284 281 278 277 275 274 273 272 271 270 267 263 260 257 252 248 246 243 240 236 239 245 243 239 232 223 222 235 237 227 227 233 236 238 238 236 236 235 233 231 229
313 313 314 313 313 315 315 314 313 309 306 308 311 308 305 304 302 301 299 295 292 291 291 290 290 290 288 288 289 288 288 288 288 288 288 287 286 285 286 286 284 283 286 288 286 283 280 278 275 273 273 273 273 273 271 266 262 257 253 250 247 242 238 236 237 240 243 240 234 224 216 228 235 223 214 216 234 242 237 233 233 232 232 230 228